Tracking 25620 objects as of 18-May-2022
HD Live streaming from Space Station
objects crossing your sky now

NAVSTAR 10 (USA 5)

Track NAVSTAR 10 (USA 5) now!
NAVSTAR 10 (USA 5) is classified as:


NORAD ID: 15271
Int'l Code: 1984-097A
Perigee: 20,536.9 km
Apogee: 21,292.6 km
Inclination: 63.2 °
Period: 747.6 minutes
Semi major axis: 27285 km
RCS: 1.5246 m2 (large)
Launch date: September 8, 1984
Source: United States (US)
Launch site: AIR FORCE WESTERN TEST RANGE (AFWTR)
aabbcc
Your satellite tracking list
Your tracking list is empty




NASA's NSSDC Master Catalog

Two Line Element Set (TLE):
1 15271U 84097A   22137.63243345 -.00000043  00000-0  00000-0 0  9997
2 15271  63.2194 335.4717 0138478 228.4920 133.7225  1.92618625267593
Source of the keplerian elements: AFSPC